Marianna, FL

3:15 AM CDT on July 25, 2017 (GMT -0500)
Marianna Municipal

Weather History for KMAI - June, 2013

Change the Weather History Date:

Wednesday, June 12, 2013

  Actual Average Record
Temperature  
Mean Temperature 85 °F 80 °F  
Max Temperature 96 °F 91 °F 102 °F (2011)
Min Temperature 74 °F 70 °F 69 °F (1997)
Degree Days  
Heating Degree Days 0    
Month to date heating degree days 0  
Since 1 June heating degree days 0  
Since 1 July heating degree days 1377  
Cooling Degree Days 20    
Month to date cooling degree days 181  
Year to date cooling degree days 617  
Since 1 June cooling degree days 181  
Growing Degree Days 34 (Base 50)    
Moisture  
Dew Point 73 °F    
Average Humidity 72    
Maximum Humidity 100    
Minimum Humidity 43    
Precipitation  
Precipitation 0.00 in 0.18 in 1.60 in (2008)
Month to date precipitation 2.06 2.12  
Year to date precipitation 22.96 24.34  
Sea Level Pressure  
Sea Level Pressure 30.04 in    
Wind  
Wind Speed 4 mph (West)    
Max Wind Speed 9 mph    
Max Gust Speed 16 mph    
Visibility 10 miles    
Events      
T = Trace of Precipitation, MM = Missing Value Source: NWS Daily Summary

Daily Weather History Graph

Daily Weather History Graph

Search for Another Location

Airport or City:

Trip Planner

Search our weather history database for the weather conditions in past years. The results will help you decide how hot, cold, wet, or windy it might be!

Date:

Astronomy

Jun. 12, 2013 Rise Set
Actual Time 5:36 AM CDT 7:44 PM CDT
Civil Twilight 5:09 AM CDT 8:12 PM CDT
Nautical Twilight 4:35 AM CDT 8:45 PM CDT
Astronomical Twilight 3:59 AM CDT 9:22 PM CDT
Moon 9:04 AM CDT (6/12) 10:33 PM CDT (6/12)
Length of Visible Light 15h 02m
Length of Day
14h 07m
Waxing Crescent, 14% of the Moon is Illuminated
Jun 12
Waxing Crescent
Jun 16
First Quarter
Jun 23
Full
Jun 29
Last Quarter
Jul 8
New

Hourly Weather History & Observations

Time (CDT) Temp. Heat Index Dew Point Humidity Pressure Visibility Wind Dir Wind Speed Gust Speed Precip Events Conditions
12:53 AM 75.0 °F - 73.0 °F 94% 30.05 in 10.0 mi Calm Calm - N/A   Clear
1:53 AM 75.0 °F - 73.0 °F 94% 30.04 in 10.0 mi Calm Calm - N/A   Clear
2:53 AM 73.9 °F - 73.0 °F 97% 30.04 in 10.0 mi Calm Calm - N/A   Clear
3:53 AM 73.9 °F - 73.0 °F 97% 30.03 in 10.0 mi Calm Calm - N/A   Clear
4:53 AM 73.9 °F - 73.0 °F 97% 30.04 in 10.0 mi WSW 3.5 mph - N/A   Clear
5:53 AM 73.9 °F - 73.0 °F 97% 30.05 in 8.0 mi Calm Calm - N/A   Clear
6:50 AM 75.2 °F - 73.4 °F 94% 30.07 in 8.0 mi West 3.5 mph - N/A   Partly Cloudy
6:53 AM 75.9 °F - 73.9 °F 94% 30.06 in 8.0 mi West 3.5 mph - N/A   Partly Cloudy
7:10 AM 75.2 °F - 73.4 °F 94% 30.07 in 9.0 mi West 4.6 mph - N/A   Mostly Cloudy
7:53 AM 79.0 °F - 75.0 °F 88% 30.08 in 10.0 mi WNW 4.6 mph - N/A   Mostly Cloudy
8:05 AM 80.6 °F 86.2 °F 75.2 °F 84% 30.08 in 10.0 mi West 5.8 mph - N/A   Mostly Cloudy
8:14 AM 80.6 °F 86.2 °F 75.2 °F 84% 30.08 in 10.0 mi NW 4.6 mph - N/A   Partly Cloudy
8:53 AM 82.9 °F 90.2 °F 75.0 °F 77% 30.07 in 10.0 mi WNW 3.5 mph - N/A   Clear
9:53 AM 88.0 °F 97.5 °F 75.0 °F 65% 30.07 in 10.0 mi NW 5.8 mph - N/A   Clear
10:53 AM 90.0 °F 97.9 °F 73.0 °F 57% 30.07 in 10.0 mi WNW 6.9 mph - N/A   Clear
11:53 AM 91.0 °F 98.2 °F 72.0 °F 53% 30.06 in 10.0 mi Variable 4.6 mph - N/A   Clear
12:53 PM 93.0 °F 100.7 °F 72.0 °F 50% 30.06 in 10.0 mi WNW 6.9 mph - N/A   Clear
1:53 PM 93.9 °F 102.1 °F 72.0 °F 49% 30.05 in 10.0 mi WNW 5.8 mph - N/A   Partly Cloudy
2:53 PM 95.0 °F 101.3 °F 70.0 °F 44% 30.03 in 10.0 mi NNW 6.9 mph - N/A   Partly Cloudy
3:53 PM 95.0 °F 101.3 °F 70.0 °F 44% 30.00 in 10.0 mi Variable 4.6 mph - N/A   Clear
4:53 PM 95.0 °F 101.3 °F 70.0 °F 44% 29.99 in 10.0 mi WNW 6.9 mph - N/A   Clear
5:53 PM 93.9 °F 100.3 °F 70.0 °F 46% 29.98 in 10.0 mi NW 6.9 mph - N/A   Clear
6:53 PM 91.9 °F 98.4 °F 71.1 °F 50% 29.97 in 10.0 mi Calm Calm - N/A   Clear
7:53 PM 88.0 °F 96.5 °F 73.9 °F 63% 29.98 in 10.0 mi Calm Calm - N/A   Clear
8:53 PM 84.0 °F 91.9 °F 75.0 °F 74% 29.99 in 10.0 mi SW 5.8 mph - N/A   Mostly Cloudy
9:53 PM 82.9 °F 90.2 °F 75.0 °F 77% 30.01 in 10.0 mi SW 8.1 mph - N/A   Scattered Clouds
10:53 PM 81.0 °F 86.7 °F 75.0 °F 82% 30.01 in 10.0 mi WSW 6.9 mph - N/A   Clear
11:53 PM 79.0 °F - 75.0 °F 88% 30.00 in 9.0 mi SW 5.8 mph - N/A   Clear